{"data":{"norad_id":43081,"intl_designator":"2017-085A","name":"YAOGAN-30 04A","alt_names":[],"object_type":"PAYLOAD","status":"ACTIVE","operator":null,"country":"PRC","launch_date":"2017-12-25","launch_site_code":"XICLF","launch_vehicle":null,"mission":null,"orbit_class":"UNKNOWN","rcs_meters":null,"size_class":null,"mass_kg":null,"dimensions":null,"purposes":[],"wikipedia_slug":null,"has_3d_model":false,"image_url":null,"decayed_at":null,"tle_current":{"epoch":"2026-09-20T05:13:39.646272Z","epoch_age_seconds":76600,"freshness":"FRESH","line1":"1 43081U 17085A   26263.21781998  .00001674  00000+0  12392-3 0  9998","line2":"2 43081  34.9960 290.7055 0005209 261.6774  98.3343 15.03026333477022","mean_motion":15.03026333,"eccentricity":0.0005209,"inclination_deg":34.996,"raan_deg":290.7055,"arg_perigee_deg":261.6774,"mean_anomaly_deg":98.3343,"bstar":0.00012392,"rev_number":47702,"period_min":95.80670467202,"perigee_km":553.95788689075,"apogee_km":561.18350716952,"semimajor_km":6935.7076970301,"source":"CELESTRAK","updated_at":"2026-09-20T09:00:14.273151Z"}}}